216  
ASUS45 KBOI 210510  
RWRID  
 
IDAHO REGIONAL WEATHER ROUNDUP  
NATIONAL WEATHER SERVICE BOISE ID  
1100 PM MDT FRI APR 20 2018  
 
NOTE: "FAIR" INDICATES FEW OR NO CLOUDS BELOW 12000 FEET  
WITH NO SIGNIFICANT WEATHER AND/OR S TO VISIBILITY
 
 
IDZ012-014-210600-  
SOUTHWEST IDAHO  
 
 
CITY SKY/WX TMP DP RH WIND PRES REMARKS
 
BOISE CLEAR 56 31 38 CALM 30.09S  
CALDWELL CLEAR 54 30 40 CALM 30.09R  
MOUNTAIN HOME CLEAR 49 25 39 N8 30.10R  

 
 
IDZ016-017-210600-  
SOUTHCENTRAL IDAHO  
 
 
CITY SKY/WX TMP DP RH WIND PRES REMARKS
 
BURLEY CLEAR 50 23 34 SW12 30.11R  
JEROME CLEAR 48 26 42 S7 30.12R  
TWIN FALLS CLEAR 45 26 47 S15 30.13R  

 
 
IDZ019>023-210600-  
SOUTHEAST IDAHO  
 
 
CITY SKY/WX TMP DP RH WIND PRES REMARKS
 
IDAHO FALLS CLEAR 44 27 51 N7 30.09R  
POCATELLO CLEAR 52 30 43 SW13 30.12R  
REXBURG CLEAR 47 27 45 NE7 30.09R  

 
 
IDZ006-010-011-018-031-032-210600-  
CENTRAL IDAHO MOUNTAINS  
 
 
CITY SKY/WX TMP DP RH WIND PRES REMARKS
 
MCCALL CLEAR 41 28 60 CALM 30.14R  
HAILEY CLEAR 48 27 43 NW8 30.13R  
STANLEY N/A 33 22 63 SE5 30.18S WCI 29  
SALMON NOT AVBL  
CHALLIS CLEAR 47 21 35 W5 30.11R  

 
 
IDZ002-004-006-007-026-210600-  
NORTHERN IDAHO  
 
 
CITY SKY/WX TMP DP RH WIND PRES REMARKS
 
LEWISTON CLEAR 55 41 59 S6 30.10S  
LOWELL N/A 47 41 80 N5 30.14R  
COEUR D'ALENE CLEAR 51 37 58 SE3 30.10S  
MULLAN PASS CLEAR 40 29 64 SW5 30.14R  

 
 
 
CLICK HERE TO GO TO PREVIOUS BULLETINS.

The Nexlab ID Page Main Text Page